This is the latest recevied weather packets stored in our database for station/object N3MFL. If no packets are shown the sender has not sent any weather packets the latest 10 day(s).
| Time | Temp. | Humidity | Pressure | Rain* | Wind** | Luminosity | Snow |
|---|---|---|---|---|---|---|---|
| 1777488159 | 17.78° C | 58% | 1015 hPa | 0 mm | - | 409 W/m² | - |
| 1777487857 | 17.78° C | 60% | 1015.2 hPa | 0 mm | - | 255 W/m² | - |
| 1777487555 | 17.22° C | 60% | 1015.3 hPa | 0 mm | - | 357 W/m² | - |
| 1777487252 | 16.67° C | 61% | 1015.3 hPa | 0 mm | - | 279 W/m² | - |
| 1777486948 | 16.67° C | 61% | 1015.4 hPa | 0 mm | - | 388 W/m² | - |
| 1777486645 | 16.67° C | 60% | 1015.1 hPa | 0 mm | - | 274 W/m² | - |
| 1777486343 | 16.67° C | 62% | 1015.1 hPa | 0 mm | - | 417 W/m² | - |
| 1777486040 | 16.11° C | 63% | 1015.3 hPa | 0 mm | - | 322 W/m² | - |
| 1777485736 | 16.11° C | 61% | 1015.4 hPa | 0 mm | - | 223 W/m² | - |
| 1777485432 | 16.11° C | 61% | 1015.4 hPa | 0 mm | - | 402 W/m² | - |
| 1777485128 | 15.56° C | 61% | 1015.2 hPa | 0 mm | - | 335 W/m² | - |
| 1777484820 | 16.11° C | 62% | 1015.5 hPa | 0 mm | - | 274 W/m² | - |
| 1777484516 | 16.11° C | 62% | 1015.5 hPa | 0 mm | - | 405 W/m² | - |
| 1777484214 | 15.56° C | 61% | 1016 hPa | 0 mm | - | 397 W/m² | - |
| 1777483910 | 15.56° C | 62% | 1015.7 hPa | 0 mm | - | 348 W/m² | - |
| 1777483606 | 15.56° C | 64% | 1015.6 hPa | 0 mm | - | 547 W/m² | - |
| 1777483305 | 15.56° C | 63% | 1015.6 hPa | 0 mm | - | 237 W/m² | - |
| 1777483002 | 15° C | 64% | 1015.6 hPa | 0 mm | - | 453 W/m² | - |
| 1777482698 | 15.56° C | 64% | 1015.7 hPa | 0 mm | - | 259 W/m² | - |
| 1777482395 | 15° C | 65% | 1015.9 hPa | 0 mm | - | 482 W/m² | - |
| 1777482093 | 14.44° C | 64% | 1015.9 hPa | 0 mm | - | 312 W/m² | - |
| 1777481791 | 15° C | 64% | 1015.8 hPa | 0 mm | - | 332 W/m² | - |
| 1777481487 | 15° C | 64% | 1015.8 hPa | 0 mm | - | 489 W/m² | - |
| 1777481183 | 15° C | 65% | 1015.8 hPa | 0 mm | - | 367 W/m² | - |
| 1777480880 | 15° C | 65% | 1015.7 hPa | 0 mm | - | 395 W/m² | - |
* Rain latest hour (hover to see other rain measurements)
** Current wind speed in m/s (hover to see current wind gust speed)